| time (UTC) | temp F | wind direction | speed knots | gust knots | rain 1hr in | rain 24hr in | rain mn in | humidity % | barometer mb |
| 20260507023332 | 47 | 315 | 0.0 | 0.0 | 0.00 | 0.00 | 0.00 | 9 | 1009.8 |
| 20260507022317 | 47 | 338 | 0.0 | 0.0 | 0.00 | 0.00 | 0.00 | 9 | 1009.8 |
| 20260507021317 | 47 | 338 | 0.0 | 0.0 | 0.00 | 0.00 | 0.00 | 9 | 1009.8 |
| 20260507020332 | 47 | 338 | 0.0 | 0.0 | 0.00 | 0.00 | 0.00 | 9 | 1009.8 |
| 20260507015317 | 47 | 338 | 0.0 | 0.0 | 0.00 | 0.00 | 0.00 | 9 | 1009.8 |
| 20260507014317 | 47 | 338 | 0.0 | 0.0 | 0.00 | 0.00 | 0.00 | 9 | 1009.8 |
| 20260507013317 | 47 | 338 | 0.0 | 0.0 | 0.00 | 0.00 | 0.00 | 9 | 1009.8 |
| 20260507012317 | 47 | 338 | 0.0 | 0.0 | 0.00 | 0.00 | 0.00 | 9 | 1009.8 |
| 20260507011317 | 47 | 338 | 0.0 | 0.0 | 0.00 | 0.00 | 0.00 | 9 | 1009.8 |
| 20260507010317 | 47 | 338 | 0.0 | 0.0 | 0.00 | 0.00 | 0.00 | 9 | 1009.8 |
| 20260507005332 | 47 | 338 | 0.0 | 0.0 | 0.00 | 0.00 | 0.00 | 9 | 1009.8 |
| 20260507004317 | 47 | 338 | 0.0 | 0.0 | 0.00 | 0.00 | 0.00 | 9 | 1009.8 |
| 20260507003332 | 47 | 338 | 0.0 | 0.0 | 0.00 | 0.00 | 0.00 | 9 | 1009.8 |
| 20260507002332 | 47 | 338 | 0.0 | 0.0 | 0.00 | 0.00 | 0.00 | 9 | 1009.8 |
| 20260507001317 | 47 | 338 | 0.0 | 0.0 | 0.00 | 0.00 | 0.00 | 9 | 1009.8 |
| 20260507000316 | 47 | 338 | 0.0 | 0.0 | 0.00 | 0.00 | 0.00 | 9 | 1009.8 |
| 20260506235317 | 47 | 338 | 0.0 | 0.0 | 0.00 | 0.00 | 0.00 | 9 | 1009.8 |
| 20260506234332 | 47 | 338 | 0.0 | 0.0 | 0.00 | 0.00 | 0.00 | 9 | 1009.8 |
| 20260506233317 | 47 | 338 | 0.0 | 0.0 | 0.00 | 0.00 | 0.00 | 9 | 1009.8 |
| 20260506232317 | 47 | 338 | 0.0 | 0.0 | 0.00 | 0.00 | 0.00 | 9 | 1009.8 |
| 20260506231317 | 47 | 338 | 0.0 | 0.0 | 0.00 | 0.00 | 0.00 | 9 | 1009.8 |
| 20260506230332 | 47 | 338 | 4.3 | 4.3 | 0.00 | 0.00 | 0.00 | 9 | 1009.8 |
| 20260506225317 | 46 | 338 | 1.7 | 1.7 | 0.00 | 0.00 | 0.00 | 9 | 1009.8 |
| 20260506224317 | 46 | 338 | 2.6 | 2.6 | 0.00 | 0.00 | 0.00 | 9 | 1008.8 |
| 20260506223332 | 46 | 338 | 4.3 | 4.3 | 0.00 | 0.00 | 0.00 | 9 | 1008.8 |
| 20260506222318 | 46 | 338 | 0.0 | 0.0 | 0.00 | 0.00 | 0.00 | 9 | 1009.8 |
| 20260506221332 | 46 | 315 | 0.0 | 0.0 | 0.00 | 0.00 | 0.00 | 9 | 1008.8 |
| 20260506220317 | 47 | 315 | 0.0 | 0.0 | 0.00 | 0.00 | 0.00 | 9 | 1008.8 |
| 20260506215318 | 47 | 338 | 0.0 | 0.0 | 0.00 | 0.00 | 0.00 | 9 | 1008.8 |
| 20260506214317 | 47 | 338 | 0.0 | 0.0 | 0.00 | 0.00 | 0.00 | 9 | 1008.8 |
| 20260506213332 | 47 | 338 | 0.0 | 0.0 | 0.00 | 0.00 | 0.00 | 9 | 1008.8 |
| 20260506212317 | 47 | 338 | 0.0 | 0.0 | 0.00 | 0.00 | 0.00 | 9 | 1008.8 |
| 20260506211332 | 47 | 338 | 0.0 | 0.0 | 0.00 | 0.00 | 0.00 | 9 | 1008.8 |
| 20260506210317 | 46 | 315 | 0.0 | 0.0 | 0.00 | 0.00 | 0.00 | 9 | 1008.8 |
| 20260506205332 | 46 | 315 | 0.0 | 0.0 | 0.00 | 0.00 | 0.00 | 9 | 1008.8 |
| 20260506204333 | 46 | 338 | 4.3 | 4.3 | 0.00 | 0.00 | 0.00 | 9 | 1008.8 |
| 20260506203333 | 47 | 338 | 1.7 | 1.7 | 0.00 | 0.00 | 0.00 | 9 | 1008.8 |
| 20260506202317 | 47 | 338 | 4.3 | 4.3 | 0.00 | 0.00 | 0.00 | 9 | 1008.8 |
| 20260506201333 | 47 | 338 | 4.3 | 4.3 | 0.00 | 0.00 | 0.00 | 9 | 1008.8 |
| 20260506200332 | 47 | 338 | 2.6 | 3.5 | 0.00 | 0.00 | 0.00 | 9 | 1008.8 |
| 20260506195318 | 47 | 338 | 0.0 | 0.0 | 0.00 | 0.00 | 0.00 | 9 | 1008.8 |
| 20260506194317 | 47 | 338 | 0.0 | 0.0 | 0.00 | 0.00 | 0.00 | 9 | 1008.8 |
| 20260506193332 | 47 | 338 | 4.3 | 4.3 | 0.00 | 0.00 | 0.00 | 9 | 1008.8 |
| 20260506192317 | 47 | 338 | 3.5 | 3.5 | 0.00 | 0.00 | 0.00 | 9 | 1008.8 |
| 20260506191332 | 47 | 315 | 4.3 | 4.3 | 0.00 | 0.00 | 0.00 | 9 | 1007.7 |
| 20260506190317 | 47 | 338 | 0.0 | 0.0 | 0.00 | 0.00 | 0.00 | 9 | 1007.7 |
| 20260506185332 | 48 | 338 | 0.0 | 0.0 | 0.00 | 0.00 | 0.00 | 9 | 1007.7 |
| 20260506184317 | 48 | 338 | 1.7 | 1.7 | 0.00 | 0.00 | 0.00 | 9 | 1007.7 |
| 20260506183332 | 48 | 338 | 4.3 | 4.3 | 0.00 | 0.00 | 0.00 | 9 | 1007.7 |
| 20260506182317 | 48 | 338 | 1.7 | 1.7 | 0.00 | 0.00 | 0.00 | 9 | 1007.7 |
| 20260506181332 | 48 | 338 | 0.0 | 0.0 | 0.00 | 0.00 | 0.00 | 9 | 1006.7 |
| 20260506180333 | 48 | 338 | 4.3 | 4.3 | 0.00 | 0.00 | 0.00 | 9 | 1006.7 |
| 20260506175332 | 48 | 338 | 1.7 | 1.7 | 0.00 | 0.00 | 0.00 | 9 | 1006.7 |
| 20260506174317 | 48 | 22 | 0.9 | 0.9 | 0.00 | 0.00 | 0.00 | 9 | 1006.7 |
| 20260506173318 | 48 | 315 | 4.3 | 4.3 | 0.00 | 0.00 | 0.00 | 9 | 1006.7 |
| 20260506172317 | 48 | 338 | 5.2 | 5.2 | 0.00 | 0.00 | 0.00 | 9 | 1006.7 |
| 20260506171317 | 48 | 315 | 0.0 | 0.0 | 0.00 | 0.00 | 0.00 | 9 | 1006.7 |
| 20260506170317 | 48 | 338 | 0.0 | 0.0 | 0.00 | 0.00 | 0.00 | 9 | 1006.7 |
| 20260506165317 | 48 | 315 | 1.7 | 1.7 | 0.00 | 0.00 | 0.00 | 9 | 1006.7 |
| 20260506164317 | 48 | 338 | 2.6 | 3.5 | 0.00 | 0.00 | 0.00 | 9 | 1006.7 |
| 20260506163317 | 48 | 338 | 0.0 | 0.0 | 0.00 | 0.00 | 0.00 | 9 | 1006.7 |
| 20260506162332 | 48 | 315 | 4.3 | 4.3 | 0.00 | 0.00 | 0.00 | 9 | 1006.7 |
| 20260506161317 | 48 | 338 | 0.0 | 0.0 | 0.00 | 0.00 | 0.00 | 9 | 1006.7 |
| 20260506160317 | 48 | 338 | 0.0 | 0.0 | 0.00 | 0.00 | 0.00 | 9 | 1006.7 |
| 20260506155317 | 48 | 292 | 4.3 | 4.3 | 0.00 | 0.00 | 0.00 | 9 | 1006.7 |
| 20260506154317 | 48 | 315 | 4.3 | 4.3 | 0.00 | 0.00 | 0.00 | 9 | 1006.7 |
| 20260506153332 | 48 | 338 | 0.0 | 0.0 | 0.00 | 0.00 | 0.00 | 9 | 1006.7 |
| 20260506152317 | 48 | 338 | 0.0 | 0.0 | 0.00 | 0.00 | 0.00 | 9 | 1006.7 |
| 20260506151332 | 48 | 338 | 0.0 | 0.0 | 0.00 | 0.00 | 0.00 | 9 | 1006.7 |
| 20260506150202 | 48 | 338 | 0.9 | 0.9 | 0.00 | 0.00 | 0.00 | 9 | 1006.7 |
| 20260506145202 | 48 | 315 | 5.2 | 5.2 | 0.00 | 0.00 | 0.00 | 9 | 1006.0 |
| 20260506144203 | 48 | 338 | 3.5 | 4.3 | 0.00 | 0.00 | 0.00 | 9 | 1006.0 |
| 20260506143202 | 48 | 338 | 6.1 | 6.1 | 0.00 | 0.00 | 0.00 | 9 | 1006.0 |
| 20260506142202 | 48 | 338 | 6.1 | 6.1 | 0.00 | 0.00 | 0.00 | 9 | 1006.0 |
| 20260506141202 | 48 | 338 | 0.0 | 0.0 | 0.00 | 0.00 | 0.00 | 9 | 1006.0 |
| 20260506140202 | 48 | 338 | 4.3 | 4.3 | 0.00 | 0.00 | 0.00 | 9 | 1006.0 |
| 20260506135202 | 48 | 338 | 6.1 | 7.0 | 0.00 | 0.00 | 0.00 | 9 | 1006.0 |
| 20260506134204 | 48 | 338 | 1.7 | 1.7 | 0.00 | 0.00 | 0.00 | 9 | 1006.0 |
| 20260506133202 | 48 | 338 | 6.1 | 6.1 | 0.00 | 0.00 | 0.00 | 9 | 1006.0 |
| 20260506132202 | 48 | 338 | 2.6 | 3.5 | 0.00 | 0.00 | 0.00 | 9 | 1006.0 |
| 20260506131202 | 48 | 315 | 0.0 | 0.0 | 0.00 | 0.00 | 0.00 | 9 | 1006.0 |
| 20260506130201 | 48 | 338 | 5.2 | 5.2 | 0.00 | 0.00 | 0.00 | 9 | 1006.0 |
| 20260506125202 | 48 | 315 | 4.3 | 4.3 | 0.00 | 0.00 | 0.00 | 9 | 1006.0 |
| 20260506124202 | 48 | 338 | 0.0 | 0.0 | 0.00 | 0.00 | 0.00 | 9 | 1006.0 |
| 20260506123202 | 48 | 338 | 4.3 | 4.3 | 0.00 | 0.00 | 0.00 | 9 | 1006.0 |
| 20260506122202 | 48 | 338 | 5.2 | 6.1 | 0.00 | 0.00 | 0.00 | 9 | 1006.0 |
| 20260506121201 | 48 | 315 | 4.3 | 4.3 | 0.00 | 0.00 | 0.00 | 9 | 1006.0 |
| 20260506120203 | 48 | 338 | 4.3 | 4.3 | 0.00 | 0.00 | 0.00 | 9 | 1006.0 |
| 20260506115202 | 48 | 22 | 0.0 | 0.0 | 0.00 | 0.00 | 0.00 | 9 | 1006.0 |
| 20260506114202 | 48 | 338 | 4.3 | 4.3 | 0.00 | 0.00 | 0.00 | 9 | 1006.0 |
| 20260506113202 | 48 | 0 | 4.3 | 4.3 | 0.00 | 0.00 | 0.00 | 9 | 1006.0 |
| 20260506112201 | 48 | 315 | 3.5 | 3.5 | 0.00 | 0.00 | 0.00 | 9 | 1006.0 |
| 20260506111202 | 48 | 315 | 4.3 | 4.3 | 0.00 | 0.00 | 0.00 | 9 | 1005.0 |
| 20260506110202 | 48 | 315 | 5.2 | 5.2 | 0.00 | 0.00 | 0.00 | 9 | 1005.0 |
| 20260506105202 | 48 | 338 | 5.2 | 5.2 | 0.00 | 0.00 | 0.00 | 9 | 1006.0 |
| 20260506104202 | 48 | 338 | 2.6 | 3.5 | 0.00 | 0.00 | 0.00 | 9 | 1005.0 |
| 20260506103202 | 48 | 338 | 3.5 | 3.5 | 0.00 | 0.00 | 0.00 | 9 | 1005.0 |
| 20260506102202 | 48 | 0 | 4.3 | 4.3 | 0.00 | 0.00 | 0.00 | 9 | 1005.0 |
| 20260506101202 | 48 | 45 | 2.6 | 2.6 | 0.00 | 0.00 | 0.00 | 9 | 1005.0 |
| 20260506100202 | 48 | 338 | 6.1 | 6.1 | 0.00 | 0.00 | 0.00 | 9 | 1005.0 |
| 20260506095202 | 49 | 338 | 2.6 | 2.6 | 0.00 | 0.00 | 0.00 | 9 | 1005.0 |
| 20260506094201 | 49 | 338 | 6.1 | 7.0 | 0.00 | 0.00 | 0.00 | 9 | 1005.0 |
| 20260506093202 | 49 | 338 | 5.2 | 5.2 | 0.00 | 0.00 | 0.00 | 9 | 1005.0 |
| 20260506092202 | 49 | 315 | 0.0 | 0.0 | 0.00 | 0.00 | 0.00 | 9 | 1005.0 |
| 20260506091202 | 49 | 338 | 5.2 | 5.2 | 0.00 | 0.00 | 0.00 | 9 | 1005.0 |
| 20260506090202 | 49 | 338 | 0.0 | 0.0 | 0.00 | 0.00 | 0.00 | 9 | 1005.0 |
| 20260506085202 | 49 | 338 | 0.0 | 0.0 | 0.00 | 0.00 | 0.00 | 9 | 1005.0 |
| 20260506084203 | 49 | 338 | 6.1 | 7.8 | 0.00 | 0.00 | 0.00 | 9 | 1004.0 |
| 20260506083202 | 49 | 315 | 4.3 | 4.3 | 0.00 | 0.00 | 0.00 | 9 | 1004.0 |
| 20260506082202 | 49 | 315 | 0.0 | 0.0 | 0.00 | 0.00 | 0.00 | 9 | 1004.0 |
| 20260506081202 | 49 | 338 | 4.3 | 4.3 | 0.00 | 0.00 | 0.00 | 9 | 1004.0 |
| 20260506080202 | 48 | 338 | 6.1 | 6.1 | 0.00 | 0.00 | 0.00 | 9 | 1004.0 |
| 20260506073201 | 49 | 338 | 4.3 | 4.3 | 0.00 | 0.00 | 0.00 | 9 | 1004.0 |
| 20260506072202 | 49 | 338 | 4.3 | 4.3 | 0.00 | 0.00 | 0.00 | 9 | 1004.0 |
| 20260506071202 | 49 | 338 | 2.6 | 2.6 | 0.00 | 0.00 | 0.00 | 9 | 1004.0 |
| 20260506070202 | 49 | 338 | 5.2 | 5.2 | 0.00 | 0.00 | 0.00 | 9 | 1004.0 |
| 20260506062202 | 49 | 315 | 5.2 | 5.2 | 0.00 | 0.00 | 0.00 | 9 | 1004.0 |
| 20260506061202 | 49 | 338 | 4.3 | 4.3 | 0.00 | 0.00 | 0.00 | 9 | 1004.0 |
| 20260506060202 | 49 | 338 | 4.3 | 4.3 | 0.00 | 0.00 | 0.00 | 9 | 1004.0 |
| 20260506051202 | 49 | 68 | 3.5 | 4.3 | 0.00 | 0.00 | 0.00 | 9 | 1004.0 |
| 20260506050202 | 49 | 315 | 0.0 | 0.0 | 0.00 | 0.00 | 0.00 | 9 | 1004.0 |
| 20260506044202 | 49 | 338 | 4.3 | 4.3 | 0.00 | 0.00 | 0.00 | 9 | 1004.0 |
| 20260506043202 | 49 | 338 | 5.2 | 5.2 | 0.00 | 0.00 | 0.00 | 9 | 1004.0 |
| 20260506042202 | 49 | 338 | 3.5 | 3.5 | 0.00 | 0.00 | 0.00 | 9 | 1004.0 |
| 20260506041202 | 49 | 338 | 5.2 | 5.2 | 0.00 | 0.00 | 0.00 | 9 | 1004.0 |
| 20260506040202 | 49 | 338 | 3.5 | 3.5 | 0.00 | 0.00 | 0.00 | 9 | 1004.0 |
| 20260506035202 | 49 | 338 | 5.2 | 5.2 | 0.00 | 0.00 | 0.00 | 9 | 1004.0 |
| 20260506034202 | 49 | 338 | 4.3 | 4.3 | 0.00 | 0.00 | 0.00 | 9 | 1004.0 |
| 20260506033202 | 49 | 315 | 3.5 | 4.3 | 0.00 | 0.00 | 0.00 | 9 | 1004.0 |
| 20260506032202 | 49 | 292 | 3.5 | 3.5 | 0.00 | 0.00 | 0.00 | 9 | 1004.0 |
| 20260506031203 | 49 | 338 | 1.7 | 1.7 | 0.00 | 0.00 | 0.00 | 9 | 1004.0 |
| 20260506030202 | 49 | 338 | 1.7 | 2.6 | 0.00 | 0.00 | 0.00 | 9 | 1004.0 |
| 20260506025202 | 49 | 315 | 0.0 | 0.0 | 0.00 | 0.00 | 0.00 | 9 | 1004.0 |
| 20260506024202 | 49 | 315 | 3.5 | 4.3 | 0.00 | 0.00 | 0.00 | 9 | 1004.0 |